Lapse_Rate
5.6 5.6 5.6 5.5 5.9 5.9 5.9 5.8 5.7 5.6 5.4 5.2 5.1 4.8 4.7 5.0 5.2 5.4 5.1 5.2 5.0 5.1 5.2 5.2 5.3 5.2 5.3 5.4 5.4 5.4 5.5 5.5 5.6 5.6 5.8 5.8 5.9 6.0 6.0 6.1 6.1 6.3 6.4 6.4 6.3 6.4 6.2 6.0 5.8
5.7 6.1 6.2 5.9 5.9 6.2 5.8 5.7 5.5 5.4 5.3 5.2 5.0 4.9 4.9 4.9 5.0 5.5 5.1 4.9 4.9 5.3 5.4 5.4 5.3 5.3 5.4 5.5 5.4 5.5 5.6 5.6 5.8 5.7 5.8 5.9 5.9 6.0 6.0 6.1 6.2 6.3 6.4 6.4 6.2 6.2 6.1 6.0 5.8
6.2 6.3 6.2 6.1 5.9 5.9 5.7 5.6 5.5 5.6 5.4 5.2 5.2 5.2 5.0 4.9 5.1 5.4 5.4 5.4 5.3 5.3 5.6 5.5 5.5 5.4 5.5 5.5 5.6 5.7 5.6 5.7 5.7 5.7 5.7 5.8 5.8 5.8 6.0 6.1 6.2 6.3 6.3 6.2 5.9 5.9 6.1 6.1 5.9
6.5 6.7 6.6 6.4 6.6 6.3 6.0 5.7 5.7 5.6 5.5 5.5 5.3 5.3 5.5 5.3 5.2 5.4 5.5 5.7 5.5 5.4 5.7 5.6 5.5 5.6 5.6 5.8 5.7 5.7 5.7 5.6 5.6 5.6 5.8 5.8 5.8 5.9 6.0 6.0 6.1 6.3 6.2 6.0 5.9 5.9 6.0 6.1 5.8
6.8 6.9 7.2 7.2 7.0 6.5 6.2 5.9 5.7 5.7 5.6 5.6 5.6 5.8 6.2 5.9 5.2 5.4 5.5 5.4 5.4 5.5 5.7 5.6 5.5 5.6 5.7 5.8 5.8 5.7 5.7 5.6 5.5 5.7 5.7 5.8 5.8 6.0 6.1 6.1 6.1 6.1 6.0 6.0 5.9 5.9 6.1 6.1 5.9
7.2 6.9 6.7 6.8 6.9 6.7 6.4 6.1 5.8 6.0 6.0 6.0 6.0 6.3 6.5 6.1 5.6 5.6 5.5 5.7 5.6 5.7 5.8 5.6 5.5 5.5 5.7 5.8 5.8 5.8 5.5 5.4 5.4 5.6 5.7 5.7 5.9 6.0 6.1 6.1 6.0 6.0 6.0 6.0 5.9 5.8 5.9 5.8 5.7
7.0 7.1 6.8 7.0 7.0 6.9 6.5 6.4 6.4 6.4 6.3 6.3 6.3 6.5 6.4 6.3 5.8 5.5 5.6 5.6 5.7 5.7 5.7 5.6 5.6 5.7 5.7 5.8 5.8 5.6 5.4 5.5 5.6 5.7 5.6 5.5 5.8 5.9 5.9 5.9 5.9 6.0 5.9 5.8 5.8 5.7 5.7 5.7 5.7
6.9 7.0 7.1 7.0 7.0 6.8 6.7 6.7 6.7 6.7 6.6 6.5 6.6 6.6 6.8 6.6 6.4 6.0 5.9 5.8 5.8 5.7 5.6 5.6 5.6 5.7 5.8 5.8 5.6 5.5 5.5 5.6 5.5 5.6 5.5 5.6 5.7 5.8 5.8 5.8 5.8 5.8 5.6 5.6 5.6 5.6 5.6 5.7 5.7
7.1 7.2 7.1 7.0 6.7 6.4 6.5 6.6 6.9 6.7 6.6 6.6 6.4 6.6 6.7 6.7 6.5 6.3 6.1 5.9 5.8 5.8 5.8 5.7 5.7 5.8 5.8 5.7 5.6 5.6 5.5 5.6 5.4 5.5 5.5 5.6 5.7 5.7 5.7 5.7 5.7 5.7 5.6 5.6 5.7 5.6 5.5 5.7 5.7
7.1 7.0 7.3 7.2 7.0 6.5 6.6 6.5 6.7 6.9 6.7 6.8 6.8 6.7 6.6 6.9 6.7 6.5 6.5 6.4 6.1 6.0 6.0 5.9 5.8 5.8 5.8 5.7 5.6 5.5 5.5 5.6 5.5 5.5 5.5 5.6 5.8 5.7 5.8 5.6 5.6 5.6 5.6 5.6 5.6 5.6 5.5 5.6 5.6
7.7 7.2 7.1 7.1 7.0 7.1 6.9 6.4 6.9 7.1 7.2 7.0 7.0 7.2 7.0 6.9 6.9 6.6 6.5 6.4 6.4 6.1 6.1 6.1 6.0 5.9 5.8 5.7 5.6 5.5 5.6 5.6 5.6 5.5 5.5 5.5 5.8 5.8 5.9 5.8 5.6 5.7 5.7 5.8 5.9 5.9 5.8 5.6 5.4
7.6 7.3 7.0 7.2 7.1 7.5 7.5 7.2 6.9 7.2 7.2 7.0 7.0 6.9 6.9 7.2 7.2 6.9 6.7 6.6 6.3 6.3 6.2 6.2 6.2 6.1 5.9 5.6 5.6 5.7 5.7 5.7 5.6 5.6 5.6 5.6 5.8 5.9 5.8 5.8 5.8 5.7 5.8 5.8 5.9 5.8 5.5 5.3 5.1
7.4 7.5 7.1 6.8 6.9 7.5 7.8 7.9 7.6 7.4 7.3 7.5 7.1 7.1 7.1 7.2 7.3 7.0 6.8 6.6 6.5 6.4 6.2 6.1 6.2 6.2 5.9 5.7 5.6 5.6 5.7 5.7 5.7 5.7 5.7 5.7 5.9 6.0 5.9 5.9 5.8 5.9 5.9 6.0 5.9 5.8 5.5 5.4 5.2
7.5 7.3 7.2 7.1 7.2 7.6 8.0 8.0 7.8 8.1 7.6 7.8 7.5 7.1 7.2 7.0 7.1 7.2 7.1 6.8 6.6 6.5 6.3 6.2 6.2 6.1 6.1 5.9 5.8 5.6 5.6 5.6 5.7 5.7 5.8 5.9 6.0 6.0 5.9 5.9 5.9 5.9 5.9 5.9 5.6 5.7 5.6 5.4 5.3
7.2 7.1 7.1 7.3 7.3 7.6 8.1 8.3 8.6 8.2 8.0 7.7 7.5 7.2 7.3 7.0 7.0 7.0 6.8 6.6 6.6 6.7 6.4 6.3 6.2 6.2 6.1 6.0 5.9 5.8 5.7 5.7 5.7 5.7 5.7 5.9 5.9 5.9 5.8 5.8 6.0 6.1 5.9 5.9 5.6 5.3 4.6 5.2 5.1
6.6 6.9 7.1 7.7 7.8 7.9 8.0 8.5 8.9 8.5 8.0 7.8 7.4 7.3 7.3 7.3 7.0 6.5 6.7 6.4 6.4 6.6 6.6 6.3 6.3 6.3 6.1 6.0 5.8 5.8 5.7 5.7 5.8 5.8 5.8 5.8 5.8 5.7 5.7 5.8 6.1 5.9 5.9 6.0 5.9 5.7 5.5 5.5 5.5
5.8 6.6 7.5 7.6 7.7 7.8 8.0 8.4 8.8 8.9 8.4 8.3 8.0 7.4 7.2 7.1 7.0 6.8 6.6 6.5 6.5 6.5 6.4 6.4 6.4 6.3 6.1 5.9 5.8 5.8 5.8 5.8 5.8 5.8 5.9 6.0 6.0 5.6 5.6 5.8 6.0 5.9 6.0 5.9 6.0 5.9 5.8 5.8 5.7
5.4 6.1 7.3 7.6 7.7 7.7 8.1 8.5 8.8 8.6 8.5 8.5 8.1 7.6 7.2 7.3 7.0 6.6 6.4 6.5 6.3 6.4 6.3 6.2 6.1 6.1 6.0 5.9 5.9 5.8 6.0 5.9 5.9 5.8 6.1 6.1 5.9 5.9 5.9 5.8 5.9 6.1 6.1 6.0 6.0 6.1 6.1 6.0 5.8
6.4 6.6 7.3 7.8 7.6 7.6 7.8 8.4 8.6 8.4 8.2 8.2 8.2 8.1 7.6 7.1 6.8 6.6 6.3 6.3 6.3 6.4 6.5 6.7 6.6 6.4 6.4 6.2 6.1 6.2 6.4 6.2 6.1 5.9 5.9 5.9 5.9 5.9 5.9 5.8 6.0 6.0 6.2 6.2 6.1 6.1 6.0 5.9 5.9
6.4 6.1 6.9 7.6 7.7 7.4 7.8 8.3 8.5 8.5 8.5 8.2 8.4 8.5 8.2 7.0 6.7 6.6 6.6 6.6 6.6 6.8 6.9 6.9 6.8 6.6 6.5 6.5 6.3 6.2 6.1 6.0 5.9 5.8 5.9 5.9 6.1 6.1 6.0 5.9 6.0 6.1 6.3 6.3 6.2 6.2 6.1 6.0 5.9
5.8 6.0 6.7 7.2 7.5 7.4 7.5 7.7 8.2 8.5 8.7 8.7 8.5 8.1 7.9 7.4 7.0 6.9 6.8 7.1 6.8 6.9 7.1 7.1 7.0 6.8 6.7 6.6 6.6 6.4 6.3 6.3 6.2 6.1 6.0 6.0 5.9 5.9 5.9 5.9 6.0 6.1 6.3 6.4 6.2 6.3 6.4 6.2 6.3
5.7 6.6 6.4 6.9 7.1 7.4 7.2 7.8 7.8 8.2 8.2 8.6 8.8 8.3 7.8 7.5 7.0 7.0 6.8 6.8 6.9 7.0 7.1 7.1 7.0 6.9 6.7 6.6 6.7 6.6 6.2 6.3 6.1 6.0 5.9 5.8 5.9 5.8 5.6 5.8 6.0 6.2 6.4 6.4 6.4 6.4 6.3 6.3 6.1
5.5 5.9 6.7 6.9 7.2 7.4 7.2 7.0 7.7 7.6 8.0 8.7 8.9 8.6 8.3 7.5 7.4 7.0 6.9 7.0 6.9 6.6 6.7 6.7 6.7 6.7 6.6 6.7 6.8 6.6 6.4 6.2 6.1 6.1 6.3 6.2 6.1 6.0 6.0 6.2 6.2 6.3 6.4 6.4 6.5 6.4 6.3 6.3 6.2
5.7 5.8 6.3 6.6 7.0 6.6 6.9 6.7 7.3 7.2 8.1 8.8 8.9 8.8 8.7 8.0 7.5 7.3 7.0 6.7 6.8 6.8 6.8 6.7 6.7 6.8 6.7 6.6 6.7 6.7 6.6 6.4 6.3 6.2 6.4 6.4 6.4 6.2 6.2 6.3 6.3 6.4 6.5 6.5 6.5 6.4 6.4 6.4 6.2
5.0 5.6 6.5 6.8 6.5 5.6 7.0 6.5 6.1 7.4 7.8 8.6 9.0 8.9 9.1 8.8 8.1 7.6 7.4 7.4 7.2 7.0 6.9 6.8 6.7 6.6 6.7 6.7 6.8 6.8 6.8 6.6 6.5 6.2 6.4 6.6 6.6 6.5 6.4 6.5 6.5 6.4 6.5 6.5 6.7 6.5 6.5 6.5 6.3
5.0 5.5 5.9 5.8 6.4 7.0 6.4 5.9 6.3 7.3 7.8 8.5 9.0 8.8 8.9 8.7 8.5 8.2 8.1 7.9 7.9 7.5 7.1 6.9 7.0 6.8 6.8 6.7 6.8 6.8 6.8 6.6 6.5 6.3 6.4 6.7 6.7 6.4 6.3 6.6 6.7 6.5 6.5 6.6 6.7 6.7 6.7 6.6 6.5
5.1 5.1 5.9 6.4 5.7 6.0 6.3 6.1 6.4 7.0 7.8 8.2 8.7 8.9 9.0 8.9 8.7 8.5 8.4 8.2 8.0 7.7 7.6 7.4 7.0 7.0 7.1 7.2 7.1 7.1 7.0 7.0 6.9 6.7 6.6 6.6 6.7 6.7 6.7 6.8 6.8 6.7 6.6 6.6 6.8 6.9 6.6 6.6 6.6
5.4 5.8 5.6 5.8 6.1 6.0 6.2 5.5 6.4 7.0 7.3 8.1 8.5 8.7 8.9 8.8 8.8 8.8 8.9 8.7 8.6 8.3 8.2 7.9 7.5 7.3 7.2 7.0 7.2 7.4 7.4 7.3 7.2 6.8 6.8 6.9 6.9 6.8 6.9 7.1 7.0 6.9 6.8 6.7 6.8 6.9 6.9 6.7 6.7
4.7 4.8 5.3 5.7 5.8 6.6 6.3 6.4 6.3 6.8 7.5 7.9 8.5 8.7 9.0 8.8 8.7 9.1 9.1 9.1 9.1 9.0 8.7 8.3 8.1 7.9 7.7 7.4 7.3 7.1 7.2 7.1 7.0 7.2 6.9 7.0 7.0 7.3 7.2 7.3 7.2 7.0 7.0 6.9 7.0 6.9 7.0 7.0 6.9
5.5 5.8 5.7 6.1 5.4 5.4 6.3 6.3 6.6 6.6 7.2 7.7 8.2 8.7 9.0 8.8 8.8 9.1 8.9 9.1 9.1 8.9 8.7 8.6 8.4 8.2 8.1 7.9 7.5 7.4 7.1 7.1 6.9 7.0 6.9 6.8 7.2 7.4 7.6 7.5 7.4 7.2 7.1 7.1 7.0 7.0 7.1 7.1 7.0
Wind_Speed
15 13 6 2 2 2 2 2 1 6 4 3 9 3 5 5 2 3 7 8 15 12 16 16 18 21 21 21 21 21 20 19 19 18 15 14 13 11 10 9 9 9 10 8 10 8 7 6 6
13 10 2 1 2 1 3 1 3 4 7 14 11 9 4 4 4 11 9 20 22 19 18 17 19 20 22 20 20 19 19 18 18 16 14 12 11 10 9 9 7 8 9 9 9 8 7 7 5
13 5 2 2 2 2 2 0 5 12 11 6 5 7 3 5 10 11 16 22 20 17 19 18 19 20 20 19 19 18 18 17 16 15 13 11 10 8 9 8 6 7 9 8 8 7 6 5 5
6 2 3 3 3 2 1 7 15 11 6 4 12 8 5 3 12 11 20 20 18 16 19 19 19 20 19 18 18 17 16 15 14 13 11 10 8 7 7 6 6 9 8 7 7 6 5 4 4
3 2 2 3 2 2 3 13 9 5 4 6 3 6 8 5 13 21 20 17 18 16 19 20 18 18 18 17 16 15 15 13 13 11 10 8 7 6 6 6 6 8 7 7 6 5 6 6 5
2 3 2 3 3 2 5 13 8 6 7 10 12 13 6 11 20 18 18 17 17 16 19 19 17 17 16 16 15 14 13 12 11 9 8 7 6 6 5 5 5 7 6 5 5 5 5 5 6
2 2 2 4 4 1 5 8 6 7 9 7 13 9 5 14 20 17 17 15 16 18 18 18 18 16 16 15 14 12 11 10 9 8 7 6 5 4 3 4 4 4 4 5 4 4 5 5 6
1 2 1 2 3 3 5 6 8 8 5 14 11 7 10 17 21 18 17 15 15 14 16 16 17 17 15 15 12 11 9 8 7 6 5 4 3 2 2 1 2 1 2 3 3 3 3 3 3
1 3 2 1 3 1 10 4 5 6 12 6 6 8 15 23 21 19 17 16 14 13 14 16 17 16 15 12 12 10 9 7 6 5 4 3 1 0 1 2 3 1 2 1 2 2 3 3 2
4 3 2 3 2 5 12 9 10 4 12 7 7 13 23 23 21 22 20 18 18 17 16 14 15 15 15 13 11 10 8 7 6 5 3 2 1 3 4 4 4 3 1 2 1 1 2 3 3
6 5 3 2 5 3 12 10 8 7 10 11 15 22 25 23 21 21 20 19 19 17 14 15 13 15 15 12 12 9 9 7 7 6 5 3 3 2 3 2 1 1 1 1 2 1 2 2 4
5 11 8 2 0 3 11 11 8 12 3 11 17 25 27 25 24 23 21 20 19 17 17 16 16 14 15 13 12 10 9 9 7 7 6 4 4 3 2 2 2 2 1 2 1 1 2 1 1
14 9 5 11 11 9 7 15 10 16 10 12 20 25 24 23 22 20 19 17 18 18 17 17 15 13 14 13 11 11 10 10 8 8 6 5 4 3 3 3 3 4 4 3 1 3 2 2 3
4 12 13 10 13 11 13 10 9 11 14 16 22 26 23 24 24 20 19 19 19 18 18 17 16 16 16 12 13 10 11 10 9 8 8 7 6 4 4 3 3 4 4 4 2 2 5 1 1
10 13 13 14 10 8 11 9 18 10 19 20 22 23 22 22 21 22 21 20 20 18 17 17 17 17 13 13 14 12 11 10 10 9 9 9 8 6 5 4 4 4 3 2 3 2 3 4 2
3 3 5 1 7 5 14 15 15 17 20 21 23 22 21 23 24 21 19 19 18 17 18 17 14 16 16 12 13 12 11 11 11 10 9 11 10 9 7 5 4 4 4 2 1 1 2 2 3
5 9 8 6 9 5 12 13 5 20 21 21 22 22 21 21 22 22 21 19 19 18 17 17 16 16 16 14 13 13 12 11 11 10 10 11 12 12 9 7 5 4 3 1 1 1 1 1 2
10 9 9 12 1 7 10 17 2 19 22 21 22 22 22 23 25 22 22 20 19 18 17 16 15 16 15 11 9 8 8 10 11 11 11 12 13 12 10 8 6 4 4 3 2 0 2 1 2
7 15 11 4 3 6 12 13 9 15 18 20 20 21 22 24 22 21 21 19 19 18 18 18 17 16 13 11 11 10 10 9 8 11 14 14 14 13 12 9 7 7 5 3 2 2 3 2 2
16 17 16 8 10 4 6 10 9 15 21 23 25 24 24 22 20 21 21 21 21 21 20 19 18 17 15 11 10 8 9 9 9 10 10 12 13 12 12 10 7 6 4 5 5 4 2 1 1
20 22 19 14 3 4 7 13 6 11 16 17 21 21 20 23 24 23 23 24 22 21 21 18 18 17 15 14 9 8 6 6 7 8 7 9 12 12 13 13 9 6 5 5 6 5 4 1 2
23 17 16 15 8 11 5 12 6 11 16 18 19 21 22 24 22 21 23 23 24 22 20 19 18 17 16 16 13 13 12 11 11 10 9 8 12 11 11 12 12 9 6 6 5 4 4 3 4
16 11 16 17 14 11 13 8 12 4 12 19 21 23 24 24 24 24 25 25 25 20 19 19 18 18 17 17 16 13 14 11 9 9 11 10 9 12 12 13 12 9 7 7 6 6 5 4 3
13 7 9 6 9 15 20 14 17 15 15 14 18 22 23 24 25 24 24 22 20 20 20 18 17 18 18 17 18 17 16 14 11 10 10 10 10 10 13 13 12 12 9 8 7 7 7 5 3
20 16 7 9 11 15 12 14 21 9 18 20 18 23 24 25 25 24 24 22 21 22 22 19 20 20 19 19 19 19 19 17 16 14 11 11 10 10 11 11 10 9 12 10 9 8 7 7 6
26 22 9 14 14 12 8 13 13 15 19 19 18 18 20 22 24 26 25 23 22 23 22 22 21 21 20 21 21 18 19 13 13 14 12 11 10 11 12 12 11 12 12 11 10 7 7 7 6
15 23 22 8 1 5 13 14 10 8 18 17 18 15 18 22 23 26 26 23 22 21 23 23 22 22 21 22 19 19 17 18 15 16 14 12 11 11 13 13 12 11 12 12 9 7 9 8 8
14 18 11 13 15 13 8 9 13 18 19 17 18 18 19 20 21 22 23 24 22 24 23 23 23 23 23 22 19 17 20 19 18 14 16 15 13 13 12 13 13 12 12 12 11 9 9 9 7
11 19 12 13 9 9 7 10 8 15 17 20 22 21 20 19 20 21 21 22 23 22 20 23 23 23 21 21 20 19 18 19 17 16 16 15 15 15 14 14 13 13 13 13 12 12 11 12 11
23 19 22 11 14 12 7 7 1 10 10 13 16 17 13 15 17 18 20 19 20 22 21 23 22 23 24 22 21 21 20 19 19 19 18 17 16 16 15 15 15 14 14 14 15 15 14 14 14
Wind_Direction
158 157 154 205 215 225 226 60 358 121 112 69 138 149 130 37 38 98 126 156 144 137 141 140 140 133 132 130 120 119 122 124 122 122 130 123 117 114 106 92 76 64 72 73 85 84 91 98 108
155 149 189 264 259 224 69 54 148 119 120 116 95 108 88 87 73 118 122 143 147 140 142 138 136 134 130 124 123 127 128 127 124 131 128 125 121 115 103 93 81 77 72 65 80 80 75 82 98
158 151 225 238 242 5 55 63 133 118 145 134 105 73 81 104 124 125 134 142 145 141 140 140 137 132 129 129 129 129 129 130 135 134 133 129 122 114 104 94 82 75 72 71 74 77 83 77 68
157 180 220 267 352 56 41 136 134 129 110 75 120 90 91 111 134 137 144 142 142 143 147 143 140 135 134 133 132 131 134 139 137 134 131 123 120 112 102 85 61 65 75 80 80 82 80 80 82
154 236 246 265 349 24 93 146 147 125 101 129 139 106 106 84 116 138 143 145 144 146 152 150 145 139 138 137 135 137 140 139 139 136 127 122 117 110 93 78 55 65 70 78 84 79 62 58 52
197 244 274 346 10 48 120 153 133 105 120 122 111 117 98 124 139 146 147 149 150 149 153 151 148 144 143 142 141 145 143 143 139 134 130 123 110 96 86 74 61 57 74 82 81 72 65 60 59
266 277 343 314 330 330 142 161 147 128 140 122 132 116 108 148 148 148 151 151 155 154 156 158 160 156 151 152 155 152 148 147 140 142 144 137 122 111 92 75 65 72 83 86 86 71 65 69 82
126 296 334 281 10 14 137 153 138 138 105 126 142 163 162 163 157 150 155 156 160 162 161 164 167 166 165 164 166 161 158 156 152 155 156 147 142 121 106 76 75 82 91 86 75 65 42 52 74
286 281 278 216 193 135 162 149 127 103 140 166 179 152 144 155 156 154 158 163 167 169 171 173 173 171 171 173 173 173 171 168 169 179 176 160 151 46 305 355 319 144 132 83 51 355 353 3 60
218 257 218 202 215 304 176 162 145 146 159 174 112 123 140 156 162 162 169 171 176 177 181 180 180 179 179 181 182 184 183 185 189 188 200 223 274 294 313 324 350 93 131 122 79 28 21 322 55
183 233 231 194 303 21 162 153 158 157 187 187 165 149 154 163 169 172 177 177 181 182 186 187 184 186 186 187 190 192 195 199 202 209 222 239 269 299 331 329 333 21 76 162 121 85 358 306 26
226 244 248 288 142 121 171 161 184 189 170 187 164 163 161 171 176 179 183 183 184 188 191 190 190 190 193 194 198 199 202 206 208 212 221 241 257 275 312 299 311 309 4 315 359 350 87 46 74
235 260 246 251 257 269 190 195 189 207 172 146 155 167 174 175 181 186 186 183 186 191 193 194 193 194 195 200 203 209 211 210 213 214 219 238 251 281 299 292 305 318 338 333 326 173 151 125 107
204 244 258 272 255 242 216 223 199 208 171 144 159 174 180 183 185 184 188 188 190 194 195 194 196 197 198 204 208 211 214 216 219 221 222 225 246 261 287 283 285 296 295 319 329 340 96 186 358
260 274 273 248 226 233 216 230 225 177 163 155 167 177 184 190 189 195 193 193 191 195 195 198 197 197 201 206 210 216 216 217 223 226 226 229 233 238 263 279 282 309 295 258 190 35 62 87 43
237 225 268 330 198 211 187 266 235 174 168 168 171 178 190 195 196 199 200 199 196 195 196 198 199 198 202 207 208 216 218 219 224 226 230 229 229 233 239 259 268 290 290 259 188 357 24 50 72
219 241 235 277 216 177 210 280 319 180 179 176 178 181 190 199 203 202 203 200 201 198 196 199 200 203 203 207 211 216 219 224 227 229 231 232 224 228 233 238 248 254 276 190 111 78 7 54 52
214 216 238 251 189 217 230 252 10 186 191 188 184 186 190 200 207 202 203 202 202 201 198 198 200 205 203 203 209 216 219 227 231 235 231 232 229 225 222 232 230 219 231 214 173 251 117 49 38
231 232 236 251 243 250 240 261 228 194 202 198 191 194 194 204 205 201 204 203 203 203 201 200 199 201 197 199 204 209 213 216 221 230 239 232 228 221 212 217 208 215 225 221 174 200 194 133 56
224 233 237 253 268 272 275 256 215 195 206 204 195 197 201 201 200 204 204 203 203 202 204 199 200 196 198 198 202 207 207 218 217 220 223 215 209 207 201 208 208 209 215 195 196 198 199 118 76
225 226 230 241 304 228 267 262 222 217 223 216 212 210 206 202 198 198 205 206 204 205 201 200 199 198 199 200 196 202 204 215 209 218 218 213 210 207 208 211 214 204 222 211 204 198 212 225 111
226 221 234 236 242 249 219 263 225 222 216 218 214 210 210 206 208 200 203 210 208 208 201 198 197 198 200 193 197 203 210 211 216 212 214 215 215 216 214 215 209 210 215 218 205 202 212 199 172
226 206 211 230 236 252 224 254 245 200 220 219 217 214 211 210 205 202 205 206 212 207 206 203 196 197 199 197 202 201 214 217 218 217 216 219 217 218 217 213 208 207 215 216 210 194 207 200 214
199 172 177 194 231 239 234 229 252 220 220 225 222 219 213 212 212 211 211 206 210 207 207 206 200 203 199 200 203 205 209 212 213 213 216 222 221 219 217 215 211 213 211 211 208 200 207 209 206
201 183 182 209 217 237 224 223 241 234 220 229 213 217 213 209 210 212 209 205 204 204 201 198 198 204 201 202 205 208 212 207 208 208 217 217 214 212 206 202 202 207 210 206 204 194 200 201 207
199 199 205 214 235 237 184 236 240 222 224 227 232 223 213 209 212 212 209 208 202 203 202 200 200 204 201 204 206 208 210 211 214 212 217 217 216 214 204 199 202 203 200 199 198 192 199 203 208
185 210 210 242 142 252 227 243 259 235 217 215 222 215 212 215 212 215 210 208 204 201 202 199 200 204 201 205 206 207 208 211 210 211 206 213 213 215 210 206 203 202 198 197 190 200 198 203 204
192 172 179 213 225 234 213 240 234 198 211 214 226 220 216 220 218 217 213 212 209 205 202 198 201 202 201 203 205 206 206 208 210 206 208 210 206 213 208 210 209 207 203 197 192 196 199 200 207
184 191 200 198 222 223 245 242 201 221 215 212 216 216 215 217 220 217 214 213 211 209 206 204 200 199 200 203 203 206 209 209 208 207 209 208 203 202 207 209 208 207 202 198 195 201 198 201 206
201 197 198 202 197 232 267 241 174 232 229 233 237 233 238 227 222 215 218 213 212 209 205 205 202 202 202 200 201 203 205 205 205 207 205 204 203 202 203 206 208 208 204 201 201 201 204 204 208